Location: Dilsberg
(49.3983°N, 8.8354°E)
Time: 00:08:43
(UTC+00:00)

Cosmos 1536 - Pass Details

Date: 19 May 2025
Orbit: 494 x 518 km, 82.5° (Epoch: 22 June)

Event Time Altitude Azimuth Distance (km) Brightness Sun altitude
Rises 21:31:26 0° 349° (N) 2,643 7.8 -16.5°
Reaches altitude 10° 21:33:35 10° 349° (NNW) 1,747 6.6 -16.6°
Maximum altitude 21:37:25 82° 263° (W) 521 2.6 -16.9°
Enters shadow 21:38:50 37° 179° (S) 806 3.2 -17.0°
